Tracking 31027 objects as of 19-Jul-2025
HD Live streaming from Space Station
objects crossing your sky now

SATCOM 1

Track SATCOM 1 now!
SATCOM 1 is classified as:


NORAD ID: 8476
Int'l Code: 1975-117A
Perigee: 35,920.0 km
Apogee: 36,047.0 km
Inclination: 8.7 °
Period: 1,445.8 minutes
Semi major axis: 42354 km
RCS: 2.5118 m2 (large)
Launch date: December 13, 1975
Source: United States (US)
Launch site: AIR FORCE EASTERN TEST RANGE (AFETR)
Your satellite tracking list
STARLINK-4010
Track 1 satellite(s)




NASA's NSSDC Master Catalog

Two Line Element Set (TLE):
1 08476U 75117A   25199.36503008  .00000068  00000-0  00000-0 0  9991
2 08476   8.7013 306.9544 0014994 262.3278 100.8338  0.99598557 43045
Source of the keplerian elements: AFSPC